Weather History for Inverness, FL

Change the Weather History Date:

Monday, March 5, 2012

  Actual Average (KOCF) Record (KOCF)
Temperature  
Mean Temperature 54 °F -  
Max Temperature 73 °F 73 °F 87 °F (1997)
Min Temperature 35 °F 48 °F 26 °F (2002)
Degree Days  
Heating Degree Days 11    
Growing Degree Days 4 (Base 50)    
Moisture  
Dew Point 40 °F    
Average Humidity 67    
Maximum Humidity 100    
Minimum Humidity 28    
Precipitation  
Precipitation 0.00 in - - ()
Sea Level Pressure  
Sea Level Pressure 30.33 in    
Wind  
Wind Speed 2 mph ()    
Max Wind Speed 9 mph    
Max Gust Speed 16 mph    
Visibility 10.0 miles    
Events      
Averages and records for this station are not official NWS values.
T = Trace of Precipitation, MM = Missing Value Source: Averaged Metar Reports

Daily Weather History Graph

Daily Weather History Graph

Search for Another Location

Airport:

Trip Planner

Search our weather history database for the weather conditions in past years. The results will help you decide how hot, cold, wet, or windy it might be!

Date:

Astronomy

Mar. 05, 2012 Rise Set
Actual Time 6:49 AM EST 6:32 PM EST
Civil Twilight 6:25 AM EST 6:55 PM EST
Nautical Twilight 5:58 AM EST 7:23 PM EST
Astronomical Twilight 5:31 AM EST 7:50 PM EST
Moon 3:58 PM EST (3/5) 4:36 AM EST (3/5)
Length of Visible Light 12h 29m
Length of Day
11h 42m
Waxing Gibbous, 91% of the Moon is Illuminated
Mar 5
Waxing Gibbous
Mar 8
Full
Mar 14
Last Quarter
Mar 22
New
Mar 30
First Quarter

Hourly Weather History & Observations

Time (EST) Temp. Dew Point Humidity Pressure Visibility Wind Dir Wind Speed Gust Speed Precip Events Conditions
12:15 AM 41.0 °F 35.6 °F 81% 30.26 in 10.0 mi Calm Calm - N/A   Clear
12:35 AM 41.0 °F 35.6 °F 81% 30.26 in 10.0 mi Calm Calm - N/A   Clear
12:55 AM 41.0 °F 35.6 °F 81% 30.26 in 10.0 mi Calm Calm - N/A   Clear
1:15 AM 39.2 °F 35.6 °F 87% 30.25 in 10.0 mi Calm Calm - N/A   Clear
1:35 AM 39.2 °F 35.6 °F 87% 30.25 in 10.0 mi Calm Calm - N/A   Clear
1:55 AM 39.2 °F 35.6 °F 87% 30.25 in 10.0 mi Calm Calm - N/A   Clear
2:15 AM 39.2 °F 35.6 °F 87% 30.25 in 10.0 mi Calm Calm - N/A   Clear
2:35 AM 37.4 °F 35.6 °F 93% 30.26 in 10.0 mi Calm Calm - N/A   Clear
2:55 AM 37.4 °F 35.6 °F 93% 30.26 in 10.0 mi Calm Calm - N/A   Clear
3:15 AM 37.4 °F 35.6 °F 93% 30.27 in 10.0 mi Calm Calm - N/A   Clear
3:35 AM 37.4 °F 35.6 °F 93% 30.27 in 10.0 mi Calm Calm - N/A   Clear
3:55 AM 35.6 °F 35.6 °F 100% 30.28 in 10.0 mi Calm Calm - N/A   Clear
4:15 AM 35.6 °F 35.6 °F 100% 30.29 in 10.0 mi Calm Calm - N/A   Clear
4:35 AM 35.6 °F 35.6 °F 100% 30.29 in 10.0 mi Calm Calm - N/A   Clear
4:55 AM 35.6 °F 35.6 °F 100% 30.30 in 10.0 mi Calm Calm - N/A   Clear
5:15 AM 35.6 °F 35.6 °F 100% 30.32 in 10.0 mi Calm Calm - N/A   Clear
5:35 AM 35.6 °F 33.8 °F 93% 30.32 in 10.0 mi Calm Calm - N/A   Clear
5:55 AM 35.6 °F 33.8 °F 93% 30.33 in 10.0 mi Calm Calm - N/A   Clear
6:15 AM 35.6 °F 33.8 °F 93% 30.33 in 10.0 mi Calm Calm - N/A   Clear
6:35 AM 35.6 °F 33.8 °F 93% 30.34 in 10.0 mi Calm Calm - N/A   Clear
6:55 AM 35.6 °F 33.8 °F 93% 30.35 in 10.0 mi Calm Calm - N/A   Clear
7:15 AM 35.6 °F 35.6 °F 100% 30.36 in 10.0 mi Calm Calm - N/A   Clear
7:35 AM 37.4 °F 35.6 °F 93% 30.36 in 10.0 mi Calm Calm - N/A   Clear
7:55 AM 41.0 °F 39.2 °F 93% 30.36 in 10.0 mi Calm Calm - N/A   Clear
8:15 AM 44.6 °F 41.0 °F 87% 30.37 in 10.0 mi Calm Calm - N/A   Clear
8:35 AM 50.0 °F 42.8 °F 76% 30.37 in 10.0 mi Calm Calm - N/A   Clear
8:55 AM 57.2 °F 42.8 °F 59% 30.37 in 10.0 mi Calm Calm - N/A   Clear
9:15 AM 60.8 °F 41.0 °F 48% 30.37 in 10.0 mi NNW 5.8 mph - N/A   Clear
9:35 AM 62.6 °F 41.0 °F 45% 30.38 in 10.0 mi North 9.2 mph - N/A   Clear
9:55 AM 64.4 °F 41.0 °F 42% 30.38 in 10.0 mi NNW 4.6 mph - N/A   Clear
10:15 AM 66.2 °F 37.4 °F 35% 30.38 in 10.0 mi West 3.5 mph - N/A   Clear
10:35 AM 66.2 °F 37.4 °F 35% 30.38 in 10.0 mi NW 4.6 mph - N/A   Clear
10:55 AM 68.0 °F 37.4 °F 33% 30.38 in 10.0 mi NW 4.6 mph - N/A   Clear
11:15 AM 68.0 °F 37.4 °F 33% 30.37 in 10.0 mi NNW 6.9 mph - N/A   Clear
11:35 AM 69.8 °F 37.4 °F 31% 30.37 in 10.0 mi North 4.6 mph - N/A   Clear
11:55 AM 69.8 °F 35.6 °F 28% 30.36 in 10.0 mi North 6.9 mph - N/A   Clear
12:15 PM 71.6 °F 37.4 °F 29% 30.35 in 10.0 mi West 8.1 mph - N/A   Clear
12:35 PM 71.6 °F 37.4 °F 29% 30.35 in 10.0 mi NW 5.8 mph - N/A   Clear
12:55 PM 71.6 °F 39.2 °F 31% 30.34 in 10.0 mi West 5.8 mph - N/A   Clear
1:15 PM 71.6 °F 39.2 °F 31% 30.33 in 10.0 mi West 3.5 mph 16.1 mph N/A   Clear
1:35 PM 71.6 °F 41.0 °F 33% 30.32 in 10.0 mi West 5.8 mph - N/A   Clear
1:55 PM 71.6 °F 41.0 °F 33% 30.32 in 10.0 mi NNW 8.1 mph - N/A   Clear
2:15 PM 71.6 °F 41.0 °F 33% 30.31 in 10.0 mi WNW 6.9 mph - N/A   Clear
2:35 PM 73.4 °F 42.8 °F 33% 30.31 in 10.0 mi SW 6.9 mph - N/A   Clear
2:55 PM 71.6 °F 41.0 °F 33% 30.30 in 10.0 mi West 8.1 mph - N/A   Clear
3:15 PM 71.6 °F 41.0 °F 33% 30.29 in 10.0 mi West 5.8 mph - N/A   Clear
3:35 PM 71.6 °F 41.0 °F 33% 30.29 in 10.0 mi NW 9.2 mph - N/A   Clear
3:55 PM 71.6 °F 42.8 °F 35% 30.29 in 10.0 mi NW 5.8 mph - N/A   Clear
4:15 PM 69.8 °F 41.0 °F 35% 30.29 in 10.0 mi WNW 5.8 mph - N/A   Clear
4:35 PM 69.8 °F 41.0 °F 35% 30.29 in 10.0 mi NNW 6.9 mph - N/A   Clear
4:55 PM 69.8 °F 41.0 °F 35% 30.29 in 10.0 mi WNW 6.9 mph - N/A   Clear
5:15 PM 68.0 °F 42.8 °F 40% 30.29 in 10.0 mi West 5.8 mph - N/A   Clear
5:35 PM 68.0 °F 42.8 °F 40% 30.30 in 10.0 mi NW 3.5 mph - N/A   Clear
5:55 PM 66.2 °F 44.6 °F 46% 30.31 in 10.0 mi West 3.5 mph - N/A   Clear
6:15 PM 64.4 °F 44.6 °F 49% 30.31 in 10.0 mi West 4.6 mph - N/A   Clear
6:35 PM 62.6 °F 46.4 °F 55% 30.32 in 10.0 mi Calm Calm - N/A   Clear
6:55 PM 60.8 °F 46.4 °F 59% 30.33 in 10.0 mi Calm Calm - N/A   Clear
7:15 PM 59.0 °F 46.4 °F 63% 30.33 in 10.0 mi Calm Calm - N/A   Clear
7:35 PM 57.2 °F 46.4 °F 67% 30.34 in 10.0 mi Calm Calm - N/A   Clear
7:55 PM 55.4 °F 46.4 °F 72% 30.34 in 10.0 mi Calm Calm - N/A   Clear
8:15 PM 55.4 °F 48.2 °F 77% 30.34 in 10.0 mi Calm Calm - N/A   Clear
8:35 PM 53.6 °F 50.0 °F 88% 30.35 in 10.0 mi Calm Calm - N/A   Clear
8:55 PM 53.6 °F 48.2 °F 82% 30.35 in 10.0 mi Calm Calm - N/A   Clear
9:15 PM 53.6 °F 50.0 °F 88% 30.36 in 10.0 mi Calm Calm - N/A   Clear
9:35 PM 51.8 °F 46.4 °F 82% 30.37 in 10.0 mi Calm Calm - N/A   Clear
9:55 PM 51.8 °F 48.2 °F 88% 30.38 in 10.0 mi Calm Calm - N/A   Clear
10:15 PM 51.8 °F 48.2 °F 88% 30.38 in 10.0 mi Calm Calm - N/A   Clear
10:35 PM 51.8 °F 48.2 °F 88% 30.38 in 10.0 mi Calm Calm - N/A   Clear
10:55 PM 50.0 °F 48.2 °F 94% 30.38 in 10.0 mi Calm Calm - N/A   Clear
11:15 PM 50.0 °F 48.2 °F 94% 30.38 in 10.0 mi Calm Calm - N/A   Clear
11:35 PM 50.0 °F 48.2 °F 94% 30.39 in 10.0 mi Calm Calm - N/A   Clear
11:55 PM 50.0 °F 48.2 °F 94% 30.38 in 10.0 mi Calm Calm - N/A   Clear